"2009-10-06 00:00:00",1302046,8.97,279.5,7.469,1.351,11.16,103.6937,8.73,9.99,44.26,0,110.1,13.43,9.51,241.5
"2009-10-06 00:00:30",1302047,8.6,279.7,7.464,1.373,11.6,103.6937,8.73,9.99,44.58,0,110.1,13.43,9.51,241.7
"2009-10-06 00:01:00",1302048,7.114,278.1,6.899,1.538,9.46,103.6934,8.73,9.91,44,0,110.1,13.43,9.51,240.1
"2009-10-06 00:01:30",1302049,8.25,281.3,8.56,1.242,11.05,103.6914,8.72,9.82,42.48,0,110.1,13.43,9.51,243.3
"2009-10-06 00:02:00",1302050,7.511,280.9,3.547,1.401,9.54,103.6928,8.73,9.82,42.07,0,110.1,13.43,9.51,242.9
"2009-10-06 00:02:30",1302051,8.2,277.5,6.519,1.864,9.99,103.6937,8.73,9.77,43.42,0,110.1,13.43,9.51,239.5
"2009-10-06 00:03:00",1302052,8.63,275,7.512,1.466,11.47,103.6937,8.73,9.92,45.3,0,110.1,13.43,9.51,237.0
"2009-10-06 00:03:30",1302053,9.24,289.3,9.4,1.329,12.04,103.6937,8.73,9.91,44.31,0,110.1,13.43,9.51,251.3
"2009-10-06 00:04:00",1302054,9.44,283.7,7.906,1.41,11.24,103.6937,8.73,9.91,42.76,0,110.1,13.43,9.51,245.7
"2009-10-06 00:04:30",1302055,8,273,10.26,1.004,9.58,103.6937,8.73,9.84,44.92,0,110.1,13.43,9.51,235.0
"2009-10-06 00:05:00",1302056,8.54,288.2,4.661,1.296,10.92,103.6937,8.73,9.85,43.87,0,110.1,13.43,9.51,250.2
"2009-10-06 00:05:30",1302057,7.239,273.7,10.12,1.396,9.48,103.6937,8.73,9.81,43.47,0,110.1,13.43,9.51,235.7
"2009-10-06 00:06:00",1302058,8.65,280,9.43,1.169,11.94,103.6937,8.73,9.91,44.27,0,110.1,13.43,9.51,242.0
"2009-10-06 00:06:30",1302059,9.24,291.9,6.777,1.016,12.81,103.6937,8.73,9.92,40.99,0,110.1,13.43,9.51,253.9
"2009-10-06 00:07:00",1302060,8.88,290,6.349,1.26,11.12,103.6937,8.73,9.98,40.53,0,110,13.43,9.51,252.0
"2009-10-06 00:07:30",1302061,8.72,286.7,6.925,1.229,9.93,103.6993,8.75,9.76,40.95,0,110.1,13.43,9.53,248.7
"2009-10-06 00:08:00",1302062,10.78,293.6,8.67,1.591,12.01,103.7208,8.8,9.96,40.43,0,110.1,13.43,9.58,255.6
"2009-10-06 00:08:30",1302063,10.04,288.5,5.553,1.477,9.69,103.7273,8.82,9.76,41.76,0,110.1,13.43,9.60,250.5
"2009-10-06 00:09:00",1302064,10.2,286.3,9.71,1.372,13.03,103.7252,8.81,10.02,43.82,0,110.1,13.43,9.59,248.3
"2009-10-06 00:09:30",1302065,9.82,274.5,7.088,0.917,12.47,103.7258,8.81,10.01,45.85,0,110.1,13.43,9.60,236.5
"2009-10-06 00:10:00",1302066,12.16,278.7,6.276,1.058,12.78,103.7249,8.81,10.01,46.59,0,110.1,13.43,9.59,240.7
"2009-10-06 00:10:30",1302067,10.54,283.7,8.7,2.11,10.36,103.7252,8.81,9.88,43.82,0,110.1,13.43,9.59,245.7
"2009-10-06 00:11:00",1302068,10.18,292.9,5.639,1.144,10.52,103.724,8.81,9.87,42.07,0,110.1,13.42,9.59,254.9
"2009-10-06 00:11:30",1302069,9.66,293,5.872,1.155,10.78,103.7229,8.81,9.87,42.37,0,110.1,13.43,9.59,255.0
"2009-10-06 00:12:00",1302070,9.8,284.9,7.514,1.189,12.01,103.7237,8.81,10.01,43.05,0,110.1,13.42,9.59,246.9
"2009-10-06 00:12:30",1302071,10.05,286.6,6.382,1.58,13.47,103.722,8.8,9.97,42.24,0,110.1,13.42,9.59,248.6
"2009-10-06 00:13:00",1302072,9.85,291.4,5.977,1.201,12.93,103.7202,8.8,10.05,42.03,0,110.1,13.41,9.58,253.4
"2009-10-06 00:13:30",1302073,9.37,280,7.849,1.546,11.08,103.7196,8.8,9.94,43.69,0,110.2,13.41,9.58,242.0
"2009-10-06 00:14:00",1302074,8.56,282.1,10.12,1.331,9.63,103.7173,8.79,9.89,44.11,0,110.1,13.41,9.57,244.1
"2009-10-06 00:14:30",1302075,8.68,279.2,4.736,1.003,10.09,103.7167,8.79,9.89,42.3,0,110.1,13.41,9.57,241.2
"2009-10-06 00:15:00",1302076,10.63,288.5,7.669,1.085,12.73,103.7161,8.79,10.02,42.63,0,110.1,13.41,9.57,250.5
"2009-10-06 00:15:30",1302077,9.58,297,9.17,1.2,12.67,103.7188,8.79,9.94,40.71,0,110.1,13.41,9.58,259.0
"2009-10-06 00:16:00",1302078,10.87,307.3,7.608,1.177,13.82,103.7147,8.78,10.08,39.22,0,110.1,13.41,9.57,269.3
"2009-10-06 00:16:30",1302079,10.76,289.2,7.609,1.217,11.65,103.7173,8.79,9.92,41.61,0,110.1,13.41,9.57,251.2
"2009-10-06 00:17:00",1302080,8.81,271.9,3.787,0.568,8.78,103.7144,8.78,9.78,43.18,0,110.1,13.44,9.57,233.9
"2009-10-06 00:17:30",1302081,9.5,280.3,10.12,1.852,10.69,103.7147,8.78,9.91,44.42,0,110.2,13.41,9.57,242.3
"2009-10-06 00:18:00",1302082,10.45,275.9,6.119,1.272,12.02,103.7126,8.78,10.03,46.43,0,110.1,13.41,9.56,237.9
"2009-10-06 00:18:30",1302083,11.58,284.1,7.445,1.041,13.3,103.7158,8.79,10,46.1,0,110.1,13.41,9.57,246.1
"2009-10-06 00:19:00",1302084,11.79,291.6,7.102,1.308,13.54,103.7155,8.79,10.08,45.44,0,110.1,13.41,9.57,253.6
"2009-10-06 00:19:30",1302085,10.01,276.4,8.39,1.214,11.59,103.715,8.79,9.95,46.05,0,110.1,13.41,9.57,238.4
"2009-10-06 00:20:00",1302086,10.01,273,9.26,0.922,8.9,103.7126,8.78,9.85,49.38,0,110.1,13.42,9.56,235.0
"2009-10-06 00:20:30",1302087,9.3,267.6,10.94,1.305,9.41,103.7058,8.76,9.89,50.13,0,110.1,13.41,9.54,229.6
"2009-10-06 00:21:00",1302088,10.04,285.8,9.07,1.374,11.77,103.6819,8.7,9.93,50.36,0,110.1,13.42,9.48,247.8
"2009-10-06 00:21:30",1302089,11.11,293.9,8.35,1.113,13.24,103.6805,8.7,9.96,46.67,0,110.1,13.42,9.48,255.9
"2009-10-06 00:22:00",1302090,9.43,297.2,9.69,1.182,12.01,103.6752,8.68,9.92,49.8,0,110.1,13.42,9.47,259.2
"2009-10-06 00:22:30",1302091,8.84,282.1,15.25,1.481,10.99,103.6521,8.62,9.89,52.02,0,110.1,13.41,9.41,244.1
"2009-10-06 00:23:00",1302092,7.09,277,9.38,0.904,7.296,103.5652,8.4,9.52,58.29,0,110.1,13.45,9.18,239.0
"2009-10-06 00:23:30",1302093,6.412,300.5,26.89,1.141,8.92,103.4014,7.984,9.44,63.76,0,110.1,13.42,8.76,262.5
"2009-10-06 00:24:00",1302094,6.303,306.8,11.67,1.659,10.07,103.3539,7.862,9.3,64.8,0,110.1,13.42,8.64,268.8
"2009-10-06 00:24:30",1302095,4.516,340.7,24.27,1.652,10.42,103.3373,7.82,9.22,65.4,0,110.1,13.42,8.60,302.7
"2009-10-06 00:25:00",1302096,5.697,336.2,12.35,1.215,8.32,103.339,7.824,9.13,65.35,0,110.1,13.42,8.60,298.2
"2009-10-06 00:25:30",1302097,5.432,315.6,15.11,1.074,8.19,103.3408,7.829,9.23,65.91,0,110.1,13.42,8.61,277.6
"2009-10-06 00:26:00",1302098,6.521,304.8,9.16,1.661,9.09,103.3313,7.804,9.04,66.08,0,110.1,13.42,8.58,266.8
"2009-10-06 00:26:30",1302099,5.338,330.8,9.38,1.235,10.04,103.3133,7.758,9.11,65.91,0,110.1,13.42,8.54,292.8
"2009-10-06 00:27:00",1302100,5.291,316.6,17.89,1.417,10.83,103.2927,7.706,9.1,65.69,0,110.1,13.42,8.48,278.6
"2009-10-06 00:27:30",1302101,5.764,311.4,13.92,1.411,10.76,103.2827,7.68,9.06,62.84,0,110.1,13.42,8.46,273.4
"2009-10-06 00:28:00",1302102,6.222,310.2,11.83,1.015,8.14,103.2593,7.62,8.87,61.13,0,110.1,13.42,8.40,272.2
"2009-10-06 00:28:30",1302103,9.25,300.5,8.21,1.531,11.01,103.2282,7.541,8.86,61.61,0,110.1,13.42,8.32,262.5
"2009-10-06 00:29:00",1302104,7.632,301.9,9.09,1.017,9.81,103.2178,7.514,8.84,61.48,0,110.1,13.42,8.29,263.9
"2009-10-06 00:29:30",1302105,7.235,307.5,6.273,1.385,11.46,103.2079,7.489,8.91,61.18,0,110.1,13.42,8.27,269.5
"2009-10-06 00:30:00",1302106,6.821,303,10.73,1.289,11.03,103.1859,7.433,8.83,62.71,0,110,13.42,8.21,265.0
"2009-10-06 00:30:30",1302107,4.869,319.5,7.389,1.373,9.29,103.1837,7.427,8.75,63.75,0,110.1,13.42,8.21,281.5
"2009-10-06 00:31:00",1302108,4.232,321.3,6.127,1.111,7.848,103.1602,7.367,8.59,63.9,0,110.1,13.42,8.14,283.3
"2009-10-06 00:31:30",1302109,5.987,324.9,6.942,0.943,8.77,103.1515,7.345,8.54,64.07,0,110.1,13.42,8.12,286.9
"2009-10-06 00:32:00",1302110,6.55,327.2,11.92,1.298,9.79,103.1515,7.345,8.63,63.99,0,110.1,13.42,8.12,289.2
"2009-10-06 00:32:30",1302111,7.423,332.3,7.125,1.554,10.78,103.1509,7.343,8.66,63.99,0,110.1,13.42,8.12,294.3
"2009-10-06 00:33:00",1302112,6.911,330.9,10.73,1.578,11.19,103.1396,7.314,8.63,64.39,0,110.1,13.42,8.09,292.9
"2009-10-06 00:33:30",1302113,6.531,315.3,7.19,1.197,10.68,103.1221,7.27,8.68,64.78,0,110.1,13.42,8.05,277.3
"2009-10-06 00:34:00",1302114,6.74,312.3,6.582,1.164,8.64,103.1176,7.258,8.44,64.71,0,110.1,13.42,8.04,274.3
"2009-10-06 00:34:30",1302115,7.189,329.5,7.069,1.122,9.41,103.1131,7.247,8.46,64.01,0,110.1,13.42,8.02,291.5
"2009-10-06 00:35:00",1302116,7.846,333.7,7.357,1.079,9.89,103.093,7.195,8.51,62.96,0,110.1,13.43,7.97,295.7
"2009-10-06 00:35:30",1302117,7.398,351,7.31,1.104,11.56,103.0837,7.171,8.61,63.24,0,110.1,13.43,7.95,313.0
"2009-10-06 00:36:00",1302118,6.199,358.1,10.48,1.523,11.28,103.0837,7.171,8.54,63.88,0,110,13.43,7.95,320.1
"2009-10-06 00:36:30",1302119,3.62,9.21,9.36,1.427,9.68,103.0775,7.156,8.44,64.55,0,110.1,13.43,7.93,331.2
"2009-10-06 00:37:00",1302120,3.285,14.56,9.4,1.23,8.82,103.0566,7.102,8.37,64.74,0,110,13.43,7.88,336.6
"2009-10-06 00:37:30",1302121,3.757,13.68,5.496,1.356,6.375,103.0498,7.085,8.22,64.64,0,110,13.46,7.86,335.7
"2009-10-06 00:38:00",1302122,5.067,19.05,7.184,1.579,7.709,103.049,7.083,8.32,64.79,0,110,13.44,7.86,341.0
"2009-10-06 00:38:30",1302123,5.434,14,9.44,1.458,10.51,103.0331,7.042,8.26,64.7,0,110,13.44,7.82,336.0
"2009-10-06 00:39:00",1302124,6.295,17.73,9.26,0.894,11.68,103.0162,6.999,8.42,64.65,0,110,13.44,7.78,339.7
"2009-10-06 00:39:30",1302125,7.748,38.11,4.82,0.917,11.88,103.0159,6.998,8.45,64.61,0,110,13.44,7.77,0.1
"2009-10-06 00:40:00",1302126,6.513,34.75,6.563,1.436,9.95,102.9942,6.943,8.36,64.5,0,110,13.44,7.72,356.8
"2009-10-06 00:40:30",1302127,5.72,31.82,3.959,1.497,8.49,102.982,6.912,8.1,64.46,0,110,13.44,7.69,353.8
"2009-10-06 00:41:00",1302128,5.838,35.92,7.619,1.593,8.93,102.9665,6.872,8.11,64.6,0,110,13.44,7.65,357.9
"2009-10-06 00:41:30",1302129,5.188,31.33,2.189,0.77,7.524,102.9481,6.825,8.1,64.55,0,110,13.44,7.60,353.3
"2009-10-06 00:42:00",1302130,7.584,44.46,5.448,1.23,12.09,102.9335,6.788,8.28,65.07,0,110,13.44,7.56,6.5
"2009-10-06 00:42:30",1302131,9.28,47.98,4.104,0.808,11.91,102.9148,6.74,8.25,65.55,0,110,13.44,7.52,10.0
"2009-10-06 00:43:00",1302132,9.51,53.6,3.834,0.761,12.1,102.8951,6.689,8.2,66.18,0,110,13.44,7.46,15.6
"2009-10-06 00:43:30",1302133,7.675,45.86,5.883,1.439,9.46,102.8807,6.653,7.95,65.5,0,110,13.44,7.43,7.9
"2009-10-06 00:44:00",1302134,6.532,42.59,5.005,0.775,7.684,102.8756,6.64,7.97,65.4,0,110,13.44,7.41,4.6
"2009-10-06 00:44:30",1302135,7.738,48.91,7.251,1.157,9.29,102.8519,6.579,7.821,65.58,0,110,13.44,7.35,10.9
"2009-10-06 00:45:00",1302136,8.3,54.51,4.988,1.085,11.43,102.8491,6.572,8.05,66.21,0,110,13.44,7.35,16.5
"2009-10-06 00:45:30",1302137,9.1,56.9,3.918,0.762,12.05,102.8478,6.569,8.04,67.03,0,110,13.44,7.34,18.9
"2009-10-06 00:46:00",1302138,8.63,55.06,5.208,0.819,11.81,102.8224,6.504,8.03,68.15,0,110,13.44,7.28,17.1
"2009-10-06 00:46:30",1302139,7.902,49.77,6.198,1.322,9.43,102.8239,6.508,7.793,68.65,0,110,13.44,7.28,11.8
"2009-10-06 00:47:00",1302140,7.702,49.47,6.492,1.295,9.39,102.824,6.508,7.817,68.85,0,110,13.43,7.28,11.5
"2009-10-06 00:47:30",1302141,7.115,47.94,6.418,1.156,8.97,102.8017,6.451,7.781,68.49,0,110,13.44,7.23,9.9
"2009-10-06 00:48:00",1302142,7.808,51.61,6.575,1.234,10.18,102.799,6.444,7.693,67.82,0,110,13.43,7.22,13.6
"2009-10-06 00:48:30",1302143,8.81,54.05,5.23,0.959,11.54,102.8028,6.454,7.846,67.95,0,110,13.44,7.23,16.0
"2009-10-06 00:49:00",1302144,8.37,52.96,5.991,1.092,10.95,102.7918,6.426,7.775,68,0,110,13.44,7.20,15.0
"2009-10-06 00:49:30",1302145,8.09,52.49,5.899,1.311,10.53,102.7732,6.378,7.687,67.59,0,110,13.43,7.15,14.5
"2009-10-06 00:50:00",1302146,7.287,47.51,5.955,1.118,8.88,102.7744,6.381,7.652,67.4,0,110,13.44,7.16,9.5
"2009-10-06 00:50:30",1302147,8.46,53.88,5.87,1.164,10.61,102.7741,6.38,7.647,67.32,0,110,13.44,7.15,15.9
"2009-10-06 00:51:00",1302148,7.049,48.35,6.219,1.068,8.98,102.7788,6.392,7.615,67.01,0,110,13.44,7.17,10.3
"2009-10-06 00:51:30",1302149,7.805,52.89,5.737,1.177,11.37,102.7788,6.392,7.714,67.05,0,110,13.44,7.17,14.9
"2009-10-06 00:52:00",1302150,7.897,55.51,6.278,1.128,11.26,102.7774,6.389,7.693,66.98,0,109.9,13.44,7.16,17.5
"2009-10-06 00:52:30",1302151,7.641,55.97,5.703,1.188,10.91,102.7757,6.384,7.548,66.82,0,110,13.44,7.16,18.0
"2009-10-06 00:53:00",1302152,6.016,49.19,4.689,0.905,7.971,102.7723,6.376,7.492,66.58,0,110,13.44,7.15,11.2
"2009-10-06 00:53:30",1302153,7.437,58.05,5.558,1.129,10.93,102.772,6.375,7.63,66.8,0,110,13.45,7.15,20.0
"2009-10-06 00:54:00",1302154,6.388,53.09,6.228,1.29,9.16,102.7723,6.376,7.397,66.67,0,110.1,13.45,7.15,15.1
"2009-10-06 00:54:30",1302155,6.433,55.41,6.841,1.25,10.09,102.7709,6.372,7.633,67.22,0,110,13.45,7.15,17.4
"2009-10-06 00:55:00",1302156,7.129,59.26,5.62,1.077,11.19,102.7709,6.372,7.585,67.35,0,110,13.45,7.15,21.3
"2009-10-06 00:55:30",1302157,6.153,52.09,5.506,1.14,8.95,102.7709,6.372,7.48,66.92,0,110,13.45,7.15,14.1
"2009-10-06 00:56:00",1302158,6.89,54.26,6.423,1.329,9.6,102.7715,6.374,7.569,66.52,0,110,13.45,7.15,16.3
"2009-10-06 00:56:30",1302159,7.462,57.07,6.231,1.207,10.37,102.7737,6.379,7.579,66.04,0,110,13.45,7.15,19.1
"2009-10-06 00:57:00",1302160,7.973,57.21,5.461,1.114,11.03,102.7785,6.392,7.534,65.66,0,110,13.45,7.17,19.2
"2009-10-06 00:57:30",1302161,8.14,55.65,5.834,1.151,11.19,102.7797,6.395,7.583,65.31,0,110,13.45,7.17,17.7
"2009-10-06 00:58:00",1302162,7.768,55.92,5.942,1.237,11.59,102.7797,6.395,7.561,65.19,0,110,13.45,7.17,17.9
"2009-10-06 00:58:30",1302163,6.483,51.42,5.161,1.048,8.74,102.7797,6.395,7.543,65.4,0,110,13.45,7.17,13.4
"2009-10-06 00:59:00",1302164,7.348,59.54,6.537,1.156,10.52,102.7797,6.395,7.591,65.84,0,110,13.45,7.17,21.5
"2009-10-06 00:59:30",1302165,7.412,61.16,5.502,1.207,10.14,102.7797,6.395,7.575,66.47,0,110,13.45,7.17,23.2
"2009-10-06 01:00:00",1302166,6.573,58.82,5.577,1.09,8.92,102.7797,6.395,7.443,66.69,0,110,13.45,7.17,20.8
"2009-10-06 01:00:30",1302167,7.372,65.22,6.059,1.239,10.73,102.7797,6.395,7.645,66.88,0,110,13.45,7.17,27.2
"2009-10-06 01:01:00",1302168,7.956,64.79,6.171,1.108,11.1,102.7797,6.395,7.687,66.77,0,110,13.45,7.17,26.8
"2009-10-06 01:01:30",1302169,7.379,59.51,6.247,1.196,9.27,102.7797,6.395,7.483,65.81,0,110,13.45,7.17,21.5
"2009-10-06 01:02:00",1302170,7.897,65.84,5.93,1.231,10.58,102.7797,6.395,7.64,65.61,0,110,13.45,7.17,27.8
"2009-10-06 01:02:30",1302171,8.28,66.74,6.224,1.166,10.28,102.7797,6.395,7.632,65.92,0,110,13.45,7.17,28.7
"2009-10-06 01:03:00",1302172,7.333,63.7,5.084,1.259,9.1,102.7799,6.395,7.518,66.51,0,109.9,13.44,7.17,25.7
"2009-10-06 01:03:30",1302173,8.54,66.47,6.539,1.228,10.89,102.7802,6.396,7.595,66.45,0,110,13.44,7.17,28.5
"2009-10-06 01:04:00",1302174,8.34,65.38,7.238,1.366,10.47,102.7808,6.398,7.663,65.53,0,109.9,13.44,7.17,27.4
"2009-10-06 01:04:30",1302175,8.01,65.64,6.291,1.291,10.15,102.7805,6.397,7.599,65.32,0,110,13.45,7.17,27.6
"2009-10-06 01:05:00",1302176,8.1,65.19,6.074,1.206,10.21,102.7817,6.4,7.643,65.03,0,110,13.44,7.17,27.2
"2009-10-06 01:05:30",1302177,8.28,66.88,5.532,1.286,10.99,102.7826,6.402,7.683,64.99,0,110,13.45,7.18,28.9
"2009-10-06 01:06:00",1302178,8.45,67.23,5.693,1.062,10.95,102.7852,6.409,7.531,64.83,0,110,13.45,7.18,29.2
"2009-10-06 01:06:30",1302179,8.56,68.99,7.133,1.104,11.14,102.7858,6.41,7.669,65.12,0,110,13.44,7.18,31.0
"2009-10-06 01:07:00",1302180,7.895,69.74,6.386,1.111,10.27,102.7872,6.414,7.591,65.88,0,110,13.45,7.19,31.7
"2009-10-06 01:07:30",1302181,6.999,67.43,6.544,1.057,9.59,102.7881,6.416,7.643,66.4,0,110,13.46,7.19,29.4
"2009-10-06 01:08:00",1302182,7.125,67.44,5.878,1.053,10.25,102.7878,6.415,7.625,67.28,0,110,13.46,7.19,29.4
"2009-10-06 01:08:30",1302183,6.636,65.23,6.802,1.283,9.79,102.791,6.423,7.679,68.76,0,110,13.46,7.20,27.2
"2009-10-06 01:09:00",1302184,6.99,67.07,6.325,1.323,9.2,102.7927,6.428,7.647,69.68,0,110,13.46,7.20,29.1
"2009-10-06 01:09:30",1302185,8.03,72.19,5.935,1.083,10.8,102.793,6.429,7.645,69.05,0,110,13.46,7.20,34.2
"2009-10-06 01:10:00",1302186,7.214,71.51,6.625,1.238,9.75,102.7954,6.435,7.607,68.02,0,109.9,13.46,7.21,33.5
"2009-10-06 01:10:30",1302187,7.414,71.61,6.761,1.298,9.9,102.7886,6.418,7.625,67.91,0,109.9,13.46,7.19,33.6
"2009-10-06 01:11:00",1302188,8.16,73.09,6.169,1.199,10.31,102.7776,6.389,7.618,67.93,0,109.9,13.46,7.16,35.1
"2009-10-06 01:11:30",1302189,8.29,61.45,3.774,1.412,9.61,102.7687,6.367,7.644,67.56,0,109.9,13.46,7.14,23.5
"2009-10-06 01:12:00",1302190,9.34,66.57,6.803,1.293,11.37,102.7687,6.367,7.607,65.73,0,109.9,13.46,7.14,28.6
"2009-10-06 01:12:30",1302191,9.22,65.66,7.995,1.05,11.32,102.7693,6.368,7.64,65.5,0,109.9,13.46,7.14,27.7
"2009-10-06 01:13:00",1302192,8.64,62.59,8.22,1.571,11.27,102.773,6.378,7.585,64.95,0,109.9,13.46,7.15,24.6
"2009-10-06 01:13:30",1302193,7.23,64.85,7.124,1.134,9.61,102.7748,6.382,7.509,64.79,0,109.9,13.46,7.16,26.8
"2009-10-06 01:14:00",1302194,7.899,62.92,4.774,1.185,10.15,102.7768,6.387,7.608,64.7,0,109.9,13.46,7.16,24.9
"2009-10-06 01:14:30",1302195,9.11,60.2,7.774,1.446,10.61,102.7762,6.386,7.489,64.65,0,109.9,13.46,7.16,22.2
"2009-10-06 01:15:00",1302196,9.31,64.06,6.109,1.234,11.46,102.7791,6.393,7.595,64.66,0,109.9,13.46,7.17,26.1
"2009-10-06 01:15:30",1302197,9.28,68.55,7.629,1.18,11.45,102.7955,6.435,7.607,64.61,0,109.9,13.46,7.21,30.6
"2009-10-06 01:16:00",1302198,8.74,63.11,5.557,1.174,10.92,102.8043,6.457,7.652,64.63,0,109.9,13.46,7.23,25.1
"2009-10-06 01:16:30",1302199,8.99,66.04,5.792,1.166,11.1,102.8119,6.477,7.503,64.52,0,109.9,13.46,7.25,28.0
"2009-10-06 01:17:00",1302200,7.44,61.31,7.494,1.207,9.26,102.8128,6.479,7.488,64.49,0,109.9,13.46,7.25,23.3
"2009-10-06 01:17:30",1302201,7.914,59.69,6.726,1.221,9.33,102.8136,6.481,7.611,64.57,0,109.9,13.46,7.26,21.7
"2009-10-06 01:18:00",1302202,8.91,62.96,8.67,1.168,10.72,102.8145,6.484,7.684,64.64,0,109.9,13.46,7.26,25.0
"2009-10-06 01:18:30",1302203,9.23,67.11,5.846,1.062,11.68,102.8139,6.482,7.65,64.42,0,109.9,13.46,7.26,29.1
"2009-10-06 01:19:00",1302204,8.7,64.06,5.408,1.057,11.09,102.8145,6.484,7.667,64.58,0,109.9,13.46,7.26,26.1
"2009-10-06 01:19:30",1302205,8.79,64.9,5.466,1.281,10.79,102.8145,6.484,7.628,64.47,0,109.9,13.45,7.26,26.9
"2009-10-06 01:20:00",1302206,7.276,54.78,5.117,0.678,8.4,102.8145,6.484,7.637,64.44,0,109.9,13.45,7.26,16.8
"2009-10-06 01:20:30",1302207,8.6,61.92,7.185,1.076,10.92,102.8145,6.484,7.642,64.37,0,109.9,13.45,7.26,23.9
"2009-10-06 01:21:00",1302208,7.7,60.98,6.292,1.177,10.09,102.8145,6.484,7.646,64.58,0,109.9,13.45,7.26,23.0
"2009-10-06 01:21:30",1302209,8.85,61.85,5.918,1.028,11.35,102.8145,6.484,7.702,64.52,0,109.9,13.46,7.26,23.8
"2009-10-06 01:22:00",1302210,8.71,58.19,5.941,1.367,10.65,102.8145,6.484,7.702,64.59,0,109.9,13.46,7.26,20.2
"2009-10-06 01:22:30",1302211,8.08,59.71,6.384,1.4,9.79,102.8145,6.484,7.636,64.3,0,109.9,13.45,7.26,21.7
"2009-10-06 01:23:00",1302212,7.458,54.7,7.516,1.124,9.65,102.8145,6.484,7.608,64.52,0,109.9,13.46,7.26,16.7
"2009-10-06 01:23:30",1302213,7.537,55.99,6.134,1.409,10.18,102.8145,6.484,7.664,64.78,0,109.9,13.46,7.26,18.0
"2009-10-06 01:24:00",1302214,7.463,51.9,7.322,1.256,9.45,102.8145,6.484,7.554,64.91,0,109.9,13.46,7.26,13.9
"2009-10-06 01:24:30",1302215,8.09,55.69,5.378,0.907,11.52,102.8145,6.484,7.748,65.29,0,109.9,13.46,7.26,17.7
"2009-10-06 01:25:00",1302216,6.965,50.43,6.686,1.263,10.2,102.8145,6.484,7.637,65.53,0,109.9,13.46,7.26,12.4
"2009-10-06 01:25:30",1302217,4.609,39.94,7.007,1.211,8.68,102.8145,6.484,7.615,67.6,0,109.9,13.46,7.26,1.9
"2009-10-06 01:26:00",1302218,4.268,39.09,3.462,0.437,6.544,102.8103,6.473,7.566,70.1,0,109.9,13.46,7.25,1.1
"2009-10-06 01:26:30",1302219,6.321,51.86,5.953,1.15,9.69,102.7843,6.406,7.686,71.24,0,109.9,13.46,7.18,13.9
"2009-10-06 01:27:00",1302220,5.214,46.06,5.048,0.962,7.978,102.7806,6.397,7.6,70.36,0,109.9,13.46,7.17,8.1
"2009-10-06 01:27:30",1302221,6.737,53.34,5.47,1.012,10.38,102.7806,6.397,7.65,69.68,0,109.9,13.46,7.17,15.3
"2009-10-06 01:28:00",1302222,6.937,53.65,5.633,1.12,10.18,102.771,6.372,7.668,69.89,0,109.9,13.46,7.15,15.7
"2009-10-06 01:28:30",1302223,6.03,49.58,6.5,1.264,9.03,102.7484,6.315,7.571,69.38,0,109.9,13.46,7.09,11.6
"2009-10-06 01:29:00",1302224,5.639,44.16,5.788,1.141,7.776,102.7467,6.31,7.384,68.44,0,109.9,13.46,7.08,6.2
"2009-10-06 01:29:30",1302225,6.582,49.6,6.523,1.146,10.54,102.7458,6.308,7.596,67.95,0,109.9,13.46,7.08,11.6
"2009-10-06 01:30:00",1302226,5.681,47.73,5.623,1.132,9.01,102.7292,6.266,7.522,67.45,0,109.9,13.47,7.04,9.7
"2009-10-06 01:30:30",1302227,6.666,51.24,5.873,1.126,10.7,102.7128,6.224,7.516,67.1,0,109.9,13.47,7.00,13.2
"2009-10-06 01:31:00",1302228,6.846,53.43,5.642,1.115,10.68,102.7128,6.224,7.515,66.83,0,109.9,13.47,7.00,15.4
"2009-10-06 01:31:30",1302229,7.082,53.71,7.644,1.332,9.06,102.7128,6.224,7.381,66.07,0,109.9,13.47,7.00,15.7
"2009-10-06 01:32:00",1302230,7.148,58.82,4.155,0.896,7.886,102.7125,6.223,7.287,65.01,0,109.9,13.47,7.00,20.8
"2009-10-06 01:32:30",1302231,8.8,65.59,6.369,1.033,10.99,102.7094,6.215,7.479,64.39,0,109.9,13.47,6.99,27.6
"2009-10-06 01:33:00",1302232,9.27,66.69,5.885,1.089,11.42,102.7088,6.214,7.455,64.12,0,109.9,13.47,6.99,28.7
"2009-10-06 01:33:30",1302233,9.19,68.23,4.767,1.098,11.26,102.7117,6.221,7.47,64.16,0,109.9,13.47,6.99,30.2
"2009-10-06 01:34:00",1302234,9.45,69.71,6.379,0.985,10.85,102.7128,6.224,7.393,63.98,0,109.9,13.46,7.00,31.7
"2009-10-06 01:34:30",1302235,7.594,63.94,3.17,0.315,7.816,102.7128,6.224,7.318,63.78,0,109.9,13.5,7.00,25.9
"2009-10-06 01:35:00",1302236,9.6,73.35,5.399,1.145,10.9,102.7128,6.224,7.37,63.67,0,109.9,13.46,7.00,35.3
"2009-10-06 01:35:30",1302237,9.47,74.23,6.03,1.175,10.9,102.7128,6.224,7.437,63.65,0,109.9,13.46,7.00,36.2
"2009-10-06 01:36:00",1302238,9.9,77.27,5.085,0.897,11.78,102.7128,6.224,7.522,63.73,0,109.9,13.46,7.00,39.3
"2009-10-06 01:36:30",1302239,9.92,77.27,5.536,1.242,11.16,102.7131,6.224,7.462,63.6,0,109.9,13.46,7.00,39.3
"2009-10-06 01:37:00",1302240,9.55,74.82,6.416,1.206,10,102.7179,6.237,7.478,63.41,0,109.9,13.46,7.01,36.8
"2009-10-06 01:37:30",1302241,9.77,72.61,6.908,1.319,9.37,102.7365,6.284,7.344,62.91,0,109.9,13.46,7.06,34.6
"2009-10-06 01:38:00",1302242,9.7,73.71,7.452,1.214,10.66,102.7461,6.309,7.486,62.76,0,109.9,13.46,7.08,35.7
"2009-10-06 01:38:30",1302243,10.32,75.5,5.902,1.194,11.51,102.7467,6.31,7.504,62.55,0,109.9,13.46,7.08,37.5
"2009-10-06 01:39:00",1302244,10.66,80.2,3.874,0.833,11.84,102.7467,6.31,7.554,62.56,0,109.9,13.46,7.08,42.2
"2009-10-06 01:39:30",1302245,11,80,4.596,0.688,12.06,102.7473,6.312,7.533,62.6,0,109.9,13.46,7.09,42.0
"2009-10-06 01:40:00",1302246,10.08,75.58,6.268,1.149,10.37,102.7645,6.356,7.439,62.42,0,109.9,13.46,7.13,37.6
"2009-10-06 01:40:30",1302247,9.84,71.72,7.018,1.277,9.47,102.7792,6.393,7.354,62.2,0,109.9,13.46,7.17,33.7
"2009-10-06 01:41:00",1302248,10.01,75.89,6.298,1.209,10.69,102.7806,6.397,7.531,62.22,0,109.9,13.46,7.17,37.9
"2009-10-06 01:41:30",1302249,9.91,78.59,5.62,1.232,11.33,102.7806,6.397,7.546,62.24,0,109.9,13.46,7.17,40.6
"2009-10-06 01:42:00",1302250,9.99,77.59,5.948,1.109,11.08,102.7806,6.397,7.612,62.29,0,109.9,13.46,7.17,39.6
"2009-10-06 01:42:30",1302251,10.01,76.71,5.851,1.036,11.09,102.7809,6.398,7.588,62.28,0,109.9,13.46,7.17,38.7
"2009-10-06 01:43:00",1302252,8.96,71.78,5.958,1.234,9.61,102.7939,6.431,7.584,62.26,0,109.9,13.46,7.21,33.8
"2009-10-06 01:43:30",1302253,8.91,69.47,6.518,1.191,8.99,102.8049,6.459,7.441,62.1,0,109.9,13.46,7.23,31.5
"2009-10-06 01:44:00",1302254,9.2,73.11,6.03,1.255,10.55,102.812,6.477,7.576,62.22,0,109.9,13.46,7.25,35.1
"2009-10-06 01:44:30",1302255,9.84,74.39,4.607,0.927,11.75,102.8139,6.482,7.673,62.28,0,109.9,13.46,7.26,36.4
"2009-10-06 01:45:00",1302256,9.73,71.68,5.759,1.099,10.96,102.8145,6.484,7.641,62.26,0,109.9,13.46,7.26,33.7
"2009-10-06 01:45:30",1302257,8.92,71.01,6.357,1.258,9.87,102.8145,6.484,7.651,62.26,0,109.9,13.46,7.26,33.0
"2009-10-06 01:46:00",1302258,8.81,69.71,6.002,1.233,9.2,102.8145,6.484,7.468,62.09,0,109.9,13.46,7.26,31.7
"2009-10-06 01:46:30",1302259,8.58,69.48,6.511,1.228,9.46,102.8145,6.484,7.608,62.18,0,109.9,13.46,7.26,31.5
"2009-10-06 01:47:00",1302260,8.91,71.2,6.642,1.272,10.35,102.8145,6.484,7.648,62.21,0,109.9,13.46,7.26,33.2
"2009-10-06 01:47:30",1302261,9.27,73.14,4.807,1.144,11.29,102.8145,6.484,7.686,62.32,0,109.9,13.46,7.26,35.1
"2009-10-06 01:48:00",1302262,9.06,71.9,5.723,1.177,10.92,102.8145,6.484,7.724,62.46,0,109.9,13.46,7.26,33.9
"2009-10-06 01:48:30",1302263,8.39,69.03,6.657,1.265,9.42,102.8145,6.484,7.68,62.29,0,109.9,13.46,7.26,31.0
"2009-10-06 01:49:00",1302264,8.37,68.63,6.147,1.276,9.28,102.8145,6.484,7.524,62.34,0,109.9,13.46,7.26,30.6
"2009-10-06 01:49:30",1302265,8.89,69.54,6.343,1.255,10.5,102.8145,6.484,7.708,62.55,0,109.9,13.46,7.26,31.5
"2009-10-06 01:50:00",1302266,9.27,67.83,6.314,1.267,10.43,102.8145,6.484,7.706,62.18,0,109.9,13.46,7.26,29.8